SCP
0 0 -0 0 0 0 0 0 0 0 0 0 0 -0 0 0 -0 -0 0 0 0 0 0 0 0 0 0 0 0 0 0 0
0 0 0 0 0 0 -0 0 0 0 0 0 0 0 0 0 0 -0 0 0 0 0 0 0 0 0 0 0 0 0 0 0
-0 -0 0 0 0 0 -0 0 0 0 0 0 0 0 0 -0 0 0 0 0 0 0 0 0 0 0 0 0 0 0 0 0
0 0 0 0 0 0 0 0 0 0 0 0 0 -0 0 0 0 0 0 0 0 0 0 0 0 0 0 1 1 1 1 0
-0 -0 0 0 0 -0 0 0 0 0 0 0 0 0 0 0 0 0 0 0 0 0 0 0 0 0 0 1 1 1 1 1
-0 -0 0 0 0 0 0 0 0 0 0 0 0 0 0 -0 0 0 0 1 0 0 0 0 0 0 0 1 1 1 1 1
-0 -0 0 0 0 0 0 0 0 0 0 0 0 0 0 0 -0 0 0 0 1 0 0 -0 0 0 1 1 1 1 1 1
0 0 0 0 0 0 0 -0 0 0 0 0 0 0 0 0 0 0 0 0 0 0 0 0 0 1 0 0 0 0 0 0
0 0 0 0 0 0 0 0 0 0 0 0 0 0 0 0 0 0 0 0 0 0 0 0 0 2 2 2 1 1 0 0
0 0 0 0 0 0 0 0 0 0 0 0 0 0 0 0 0 0 0 0 0 0 0 0 0 0 1 2 0 0 2 1
0 0 0 0 0 0 0 0 0 0 0 0 0 0 0 0 0 0 0 0 0 0 0 0 0 0 0 0 1 2 1 0
0 0 0 0 0 0 0 0 0 0 0 0 0 0 0 0 0 0 0 0 0 0 0 0 0 0 0 0 0 1 2 0
0 0 0 0 0 0 0 0 0 0 0 0 0 0 0 0 0 0 0 0 0 0 0 1 0 0 0 0 0 0 1 1
0 0 0 0 -0 0 0 0 0 0 0 0 0 0 0 0 0 0 0 0 0 0 0 0 0 0 0 0 0 0 0 1
0 0 0 0 -0 0 0 0 0 0 0 0 0 0 0 0 0 0 0 0 0 0 0 0 0 0 0 0 0 0 0 0
0 0 0 -0 -0 0 0 0 0 0 0 0 0 0 0 0 0 0 0 0 0 0 0 0 0 0 0 0 0 0 0 0
-0 0 0 0 -0 -0 0 0 0 0 0 0 0 0 0 0 0 0 0 0 0 0 0 0 0 0 0 0 0 0 0 0
0 0 0 0 0 -0 0 0 0 0 0 0 0 0 0 0 0 0 0 0 0 0 0 0 0 0 0 0 0 0 0 0
0 -0 0 0 0 0 0 0 0 0 0 0 0 0 0 0 0 0 0 0 0 0 0 0 0 0 0 0 0 0 0 0
0 0 0 -0 0 -0 0 0 0 0 0 0 0 0 0 0 0 0 0 0 0 0 0 0 0 0 0 0 0 0 0 0
Wind_Speed_500mb
13 23 28 11 25 27 15 7 12 21 45 21 20 43 40 28 27 26 16 22 26 24 21 18 16 17 18 20 21 18 17 16
16 32 32 19 23 15 8 4 7 22 27 36 24 28 31 32 26 32 28 18 22 21 18 16 17 16 16 19 22 21 19 20
28 31 8 14 16 12 16 13 9 4 35 35 28 28 27 28 28 29 21 12 18 16 13 13 14 15 17 18 22 23 23 23
26 35 17 12 11 17 12 12 14 5 31 26 14 18 27 24 28 26 16 11 12 11 9 8 9 11 15 19 23 26 27 28
36 24 18 15 11 16 11 4 25 23 16 22 23 11 13 14 15 17 12 4 8 12 3 1 5 9 14 20 26 30 32 33
35 30 6 29 6 10 12 23 14 10 21 24 16 13 2 9 15 20 14 20 13 14 7 9 9 7 11 19 25 31 35 37
35 30 17 27 4 16 11 17 5 15 29 17 14 13 20 2 4 6 3 13 8 8 6 12 17 18 20 26 28 36 39 41
28 31 22 23 10 14 3 18 10 12 13 8 11 13 17 9 16 24 30 24 27 12 9 7 19 24 32 26 31 31 43 44
12 24 21 14 6 3 8 13 29 30 22 22 14 13 19 29 28 29 29 23 27 22 19 26 30 18 36 23 43 45 24 24
6 14 8 7 11 4 2 24 18 19 19 19 24 22 26 30 30 31 28 28 25 23 25 29 36 36 27 42 27 35 38 24
3 3 8 12 9 13 16 14 9 11 13 17 18 21 18 18 20 21 20 20 21 21 25 29 28 38 38 42 34 30 27 28
10 15 9 12 15 4 22 9 7 8 14 14 17 16 17 20 20 21 21 23 26 23 25 34 37 39 40 39 40 31 33 47
14 11 7 5 15 22 22 11 10 9 7 8 11 16 21 21 21 22 21 28 30 24 29 28 38 43 45 44 47 38 28 33
29 10 16 5 24 28 21 15 11 6 9 2 10 12 17 22 22 23 24 28 31 30 31 33 38 40 44 47 48 47 43 34
23 23 1 7 20 28 21 15 13 6 11 8 6 13 16 21 24 25 26 29 35 36 34 42 43 42 41 41 45 46 45 43
7 22 16 17 25 28 31 16 12 12 4 4 3 11 14 18 25 28 32 38 41 42 42 49 47 38 35 35 36 37 41 45
13 6 6 16 23 26 29 22 11 17 17 6 6 13 19 23 27 26 34 42 46 50 49 52 48 43 38 42 45 47 50 49
8 7 7 20 28 31 23 27 16 16 6 4 11 14 23 27 28 31 33 42 39 46 49 52 52 49 44 49 49 50 51 47
20 25 24 34 33 34 26 22 15 7 6 10 13 12 24 30 26 29 38 36 46 38 44 52 50 44 47 49 50 44 38 43
17 20 22 29 22 29 28 22 19 17 6 10 10 22 28 33 35 40 38 41 30 41 50 52 51 49 57 60 61 52 53 53
Wind_Direction_500mb
232 238 260 25 39 29 30 334 299 321 65 39 9 79 111 124 127 123 133 136 134 134 134 131 137 155 171 189 196 200 198 198
253 262 256 54 59 1 293 185 296 338 83 67 56 83 93 109 122 124 129 110 128 134 136 134 140 159 176 194 204 207 210 211
269 257 256 52 60 316 315 7 336 9 81 70 68 87 94 109 117 115 129 100 122 127 133 140 149 163 179 196 206 216 217 219
260 245 108 79 46 302 292 43 40 328 76 70 67 65 92 91 99 100 112 91 111 122 141 158 162 177 193 202 211 219 224 227
285 298 106 99 60 290 342 20 47 356 101 106 69 53 74 105 111 122 147 264 52 41 49 289 217 212 218 218 221 227 230 232
275 279 340 104 105 45 301 41 47 344 13 82 75 345 242 195 157 162 154 155 319 342 335 337 350 345 290 265 247 239 239 242
262 245 103 115 213 132 1 298 67 54 64 49 30 346 335 8 257 203 49 283 162 283 182 335 292 300 285 292 289 268 251 246
8 13 32 78 339 70 334 225 214 185 112 68 4 6 341 357 327 19 34 25 38 10 41 318 355 293 289 272 295 288 265 260
31 16 7 28 95 224 304 26 23 11 32 35 6 34 360 13 23 17 15 356 18 347 315 278 265 322 301 280 272 286 293 284
41 64 322 298 282 28 337 62 28 33 28 31 24 32 19 14 15 12 9 340 326 304 285 270 275 278 285 312 296 274 269 248
24 300 253 301 277 262 108 61 55 53 48 60 41 41 48 29 25 21 14 346 332 335 322 305 280 272 274 263 298 307 300 290
238 240 151 255 223 203 106 135 124 83 49 53 58 48 40 29 22 16 12 345 341 358 331 307 302 293 281 263 267 269 300 296
217 234 199 277 228 185 120 164 149 145 115 104 51 38 30 17 9 359 3 336 339 349 314 320 305 302 297 290 277 266 268 273
181 157 148 250 274 139 138 175 205 165 174 243 99 43 22 7 359 351 349 339 334 325 326 301 299 297 295 294 291 287 265 251
158 170 116 193 299 129 166 178 250 214 230 127 349 22 16 356 346 343 343 333 332 324 319 309 306 301 297 295 293 291 288 271
134 154 177 252 265 174 178 204 230 230 213 320 56 331 341 341 332 332 336 333 330 328 324 317 317 319 302 293 287 286 288 289
306 88 24 276 280 294 186 176 202 209 185 215 319 328 329 332 317 318 324 328 327 329 325 322 325 326 305 290 281 268 256 248
246 241 242 266 261 269 264 179 184 165 170 33 338 319 319 317 321 325 325 327 323 325 323 323 323 311 320 319 312 308 307 299
340 333 302 264 260 247 223 125 130 139 179 251 261 317 328 331 327 335 332 325 325 322 325 322 322 313 304 295 292 291 295 292
296 288 283 335 303 296 174 153 155 301 155 273 316 335 342 329 339 335 328 328 322 327 329 325 317 312 311 312 310 301 289 282
Wind_Speed_850mb
13 23 28 11 25 27 15 7 12 21 45 21 20 43 40 28 27 26 16 22 26 24 21 18 16 17 18 20 21 18 17 16
16 32 32 19 23 15 8 4 7 22 27 36 24 28 31 32 26 32 28 18 22 21 18 16 17 16 16 19 22 21 19 20
28 31 8 14 16 12 16 13 9 4 35 35 28 28 27 28 28 29 21 12 18 16 13 13 14 15 17 18 22 23 23 23
26 35 17 12 11 17 12 12 14 5 31 26 14 18 27 24 28 26 16 11 12 11 9 8 9 11 15 19 23 26 27 28
36 24 18 15 11 16 11 4 25 23 16 22 23 11 13 14 15 17 12 4 8 12 3 1 5 9 14 20 26 30 32 33
35 30 6 29 6 10 12 23 14 10 21 24 16 13 2 9 15 20 14 20 13 14 7 9 9 7 11 19 25 31 35 37
35 30 17 27 4 16 11 17 5 15 29 17 14 13 20 2 4 6 3 13 8 8 6 12 17 18 20 26 28 36 39 41
28 31 22 23 10 14 3 18 10 12 13 8 11 13 17 9 16 24 30 24 27 12 9 7 19 24 32 26 31 31 43 44
12 24 21 14 6 3 8 13 29 30 22 22 14 13 19 29 28 29 29 23 27 22 19 26 30 18 36 23 43 45 24 24
6 14 8 7 11 4 2 24 18 19 19 19 24 22 26 30 30 31 28 28 25 23 25 29 36 36 27 42 27 35 38 24
3 3 8 12 9 13 16 14 9 11 13 17 18 21 18 18 20 21 20 20 21 21 25 29 28 38 38 42 34 30 27 28
10 15 9 12 15 4 22 9 7 8 14 14 17 16 17 20 20 21 21 23 26 23 25 34 37 39 40 39 40 31 33 47
14 11 7 5 15 22 22 11 10 9 7 8 11 16 21 21 21 22 21 28 30 24 29 28 38 43 45 44 47 38 28 33
29 10 16 5 24 28 21 15 11 6 9 2 10 12 17 22 22 23 24 28 31 30 31 33 38 40 44 47 48 47 43 34
23 23 1 7 20 28 21 15 13 6 11 8 6 13 16 21 24 25 26 29 35 36 34 42 43 42 41 41 45 46 45 43
7 22 16 17 25 28 31 16 12 12 4 4 3 11 14 18 25 28 32 38 41 42 42 49 47 38 35 35 36 37 41 45
13 6 6 16 23 26 29 22 11 17 17 6 6 13 19 23 27 26 34 42 46 50 49 52 48 43 38 42 45 47 50 49
8 7 7 20 28 31 23 27 16 16 6 4 11 14 23 27 28 31 33 42 39 46 49 52 52 49 44 49 49 50 51 47
20 25 24 34 33 34 26 22 15 7 6 10 13 12 24 30 26 29 38 36 46 38 44 52 50 44 47 49 50 44 38 43
17 20 22 29 22 29 28 22 19 17 6 10 10 22 28 33 35 40 38 41 30 41 50 52 51 49 57 60 61 52 53 53
Wind_Direction_850mb
232 238 260 25 39 29 30 334 299 321 65 39 9 79 111 124 127 123 133 136 134 134 134 131 137 155 171 189 196 200 198 198
253 262 256 54 59 1 293 185 296 338 83 67 56 83 93 109 122 124 129 110 128 134 136 134 140 159 176 194 204 207 210 211
269 257 256 52 60 316 315 7 336 9 81 70 68 87 94 109 117 115 129 100 122 127 133 140 149 163 179 196 206 216 217 219
260 245 108 79 46 302 292 43 40 328 76 70 67 65 92 91 99 100 112 91 111 122 141 158 162 177 193 202 211 219 224 227
285 298 106 99 60 290 342 20 47 356 101 106 69 53 74 105 111 122 147 264 52 41 49 289 217 212 218 218 221 227 230 232
275 279 340 104 105 45 301 41 47 344 13 82 75 345 242 195 157 162 154 155 319 342 335 337 350 345 290 265 247 239 239 242
262 245 103 115 213 132 1 298 67 54 64 49 30 346 335 8 257 203 49 283 162 283 182 335 292 300 285 292 289 268 251 246
8 13 32 78 339 70 334 225 214 185 112 68 4 6 341 357 327 19 34 25 38 10 41 318 355 293 289 272 295 288 265 260
31 16 7 28 95 224 304 26 23 11 32 35 6 34 360 13 23 17 15 356 18 347 315 278 265 322 301 280 272 286 293 284
41 64 322 298 282 28 337 62 28 33 28 31 24 32 19 14 15 12 9 340 326 304 285 270 275 278 285 312 296 274 269 248
24 300 253 301 277 262 108 61 55 53 48 60 41 41 48 29 25 21 14 346 332 335 322 305 280 272 274 263 298 307 300 290
238 240 151 255 223 203 106 135 124 83 49 53 58 48 40 29 22 16 12 345 341 358 331 307 302 293 281 263 267 269 300 296
217 234 199 277 228 185 120 164 149 145 115 104 51 38 30 17 9 359 3 336 339 349 314 320 305 302 297 290 277 266 268 273
181 157 148 250 274 139 138 175 205 165 174 243 99 43 22 7 359 351 349 339 334 325 326 301 299 297 295 294 291 287 265 251
158 170 116 193 299 129 166 178 250 214 230 127 349 22 16 356 346 343 343 333 332 324 319 309 306 301 297 295 293 291 288 271
134 154 177 252 265 174 178 204 230 230 213 320 56 331 341 341 332 332 336 333 330 328 324 317 317 319 302 293 287 286 288 289
306 88 24 276 280 294 186 176 202 209 185 215 319 328 329 332 317 318 324 328 327 329 325 322 325 326 305 290 281 268 256 248
246 241 242 266 261 269 264 179 184 165 170 33 338 319 319 317 321 325 325 327 323 325 323 323 323 311 320 319 312 308 307 299
340 333 302 264 260 247 223 125 130 139 179 251 261 317 328 331 327 335 332 325 325 322 325 322 322 313 304 295 292 291 295 292
296 288 283 335 303 296 174 153 155 301 155 273 316 335 342 329 339 335 328 328 322 327 329 325 317 312 311 312 310 301 289 282